Location: *
(48.7358°N, 0.3111°E)
Time: 04:17:59
(UTC+00:00)

Cosmos 44 Rocket - Pass Details

Date: 22 October 2019
Orbit: 657 x 733 km, 65.1° (Epoch: 16 November)

Event Time Altitude Azimuth Distance (km) Brightness Sun altitude
Exits shadow 04:00:24 45° 348° (NNW) 908 3.8 -25.1°
Maximum altitude 04:01:40 64° 48° (NE) 736 3.5 -24.9°
Drops below altitude 10° 04:06:19 10° 130° (SE) 2,068 6.2 -24.1°
Sets 04:08:38 0° 134° (SE) 2,976 7.0 -23.7°
